Theta_e
298 297 296 295 295 294 295 297 300 301 301 304 308 309 311 313 314 314 315 313 310 310 310 311 312 313 312 311 312 311 311 310 310 311 312 310 309 311 311 311 311 312 312 311 312 313 312 312 313 313 316 318 319 319 319 318 319 320 320 320 320 318 317 316 316 317 316 317 317 317 318 318 316 316 317 316 316 315 314 316 318 318 318 319 318 320 326
298 296 295 295 295 295 297 299 301 302 302 303 305 308 311 312 312 314 315 313 314 315 314 312 313 313 313 312 312 312 311 311 310 310 311 311 311 311 311 311 311 312 311 311 312 312 312 312 313 315 317 318 318 319 319 319 319 319 320 322 321 319 318 317 317 319 318 318 318 317 317 318 318 319 321 321 321 321 319 318 320 318 317 318 318 322 327
297 295 294 295 295 296 299 301 302 303 303 303 304 307 312 313 311 313 314 314 315 316 315 313 312 312 313 313 312 312 311 310 311 312 311 311 311 311 311 312 311 311 311 312 312 311 312 312 313 316 317 318 319 319 319 319 319 320 321 322 321 320 320 319 319 320 321 320 320 319 319 320 320 320 322 322 323 325 323 320 321 321 318 317 319 323 326
296 295 294 295 296 298 300 302 303 303 304 305 304 307 312 314 312 312 313 314 314 314 314 314 312 312 312 312 311 311 311 311 311 311 312 311 311 311 312 312 312 311 311 312 311 311 312 312 312 314 316 318 319 319 319 319 319 320 321 321 320 320 321 321 320 321 321 321 320 320 320 320 321 322 323 323 323 324 325 322 322 323 323 322 323 325 326
296 294 294 295 297 300 301 302 303 304 306 305 304 307 312 313 313 313 313 313 313 313 314 313 312 311 311 311 311 311 311 312 310 309 311 312 311 311 311 311 312 311 311 312 312 312 312 312 312 312 314 317 317 317 319 318 318 319 320 320 320 320 320 321 321 321 321 320 320 320 320 320 322 323 323 324 323 323 324 324 324 324 323 323 325 326 326
295 294 295 296 298 301 302 303 303 305 307 306 306 310 312 312 312 313 313 313 313 313 313 312 311 311 311 311 311 311 311 311 311 309 310 311 311 311 311 311 311 311 311 312 312 312 313 313 313 314 315 316 316 316 317 317 317 319 320 319 320 320 320 320 321 321 320 320 320 321 322 320 321 322 322 322 322 322 323 324 324 325 324 323 324 324 323
295 294 295 297 299 301 302 303 304 306 307 306 307 311 312 311 312 313 313 312 312 311 312 312 311 311 311 310 311 312 311 311 311 310 310 311 311 311 311 311 310 310 311 311 312 313 313 313 314 316 316 316 316 316 318 318 317 318 319 319 319 319 319 320 321 320 320 320 320 321 321 320 319 319 319 320 321 321 321 322 323 324 325 323 322 320 318
294 295 296 298 300 302 302 303 304 306 306 306 308 311 312 312 312 312 312 312 312 311 311 311 311 311 310 310 310 311 311 311 311 311 311 311 311 311 311 311 311 311 311 311 312 313 314 314 315 316 315 315 315 316 317 317 316 316 316 318 318 317 318 320 320 319 319 320 320 320 320 319 318 317 317 318 319 320 320 319 320 322 323 322 321 320 317
294 295 297 299 301 302 302 303 304 306 307 308 309 312 313 312 311 312 312 311 310 310 310 311 311 309 309 310 310 310 311 311 311 311 311 312 311 311 311 311 311 311 311 311 311 313 314 314 315 315 314 314 314 314 315 315 315 315 316 316 316 317 317 318 319 318 318 320 320 320 319 318 316 315 315 316 318 318 317 316 316 318 320 321 322 321 317
294 296 297 299 301 302 302 303 304 305 307 309 311 313 313 312 311 311 311 309 307 308 310 310 310 309 309 311 311 310 311 311 310 310 310 310 311 310 310 311 311 311 311 311 311 312 312 312 313 313 312 313 313 313 313 314 314 315 317 316 316 316 316 316 317 317 318 320 321 319 319 319 317 314 313 314 316 316 315 314 314 314 316 318 319 318 315
295 296 298 300 302 302 302 303 304 305 307 310 312 313 312 312 312 312 311 308 307 308 309 309 309 309 309 310 310 310 309 309 310 309 309 309 309 309 309 310 310 310 311 312 310 310 310 310 311 311 311 312 312 312 313 314 313 314 317 316 316 317 316 317 317 317 318 321 320 318 319 320 316 312 312 313 315 314 313 313 312 312 314 314 313 312 310
295 297 298 300 302 302 302 302 303 305 306 308 311 312 313 313 313 312 311 309 308 309 310 309 309 310 309 309 309 309 308 309 309 309 310 310 310 309 309 310 310 309 310 311 309 309 309 309 310 310 310 311 311 312 313 314 314 315 315 316 317 317 317 317 317 316 318 319 320 320 320 316 313 311 311 312 313 313 312 311 310 310 311 312 310 309 308
295 297 299 301 302 302 302 302 303 305 305 306 309 311 312 313 313 312 312 310 308 309 310 309 309 309 309 308 308 308 308 308 308 308 309 310 311 310 309 310 310 309 309 308 308 308 309 310 311 311 310 310 311 313 313 313 314 315 315 315 316 317 317 316 316 317 317 317 319 320 316 312 311 311 310 311 312 312 312 311 309 308 309 310 309 308 307
296 297 299 301 302 301 301 302 303 305 305 306 307 309 311 312 312 312 312 312 310 309 309 309 308 308 308 308 308 308 308 307 307 307 308 310 310 310 310 309 309 309 308 307 308 309 310 311 312 311 311 311 312 314 313 313 313 314 315 316 316 317 317 316 316 317 317 316 316 315 313 312 311 311 310 310 310 310 311 311 309 307 308 308 308 307 307
296 297 300 301 301 301 301 301 302 304 305 306 307 308 309 311 312 312 312 311 310 309 309 309 309 308 308 308 307 308 308 307 308 308 308 309 309 309 309 309 308 308 307 307 309 310 310 311 312 312 312 312 312 313 313 312 313 313 314 315 315 316 317 316 316 316 316 316 315 315 316 315 311 310 310 310 310 310 310 311 309 307 307 308 308 307 307
296 297 300 301 301 301 301 300 300 301 302 305 307 309 310 309 308 308 311 312 309 307 308 309 308 307 308 306 305 307 308 308 308 308 309 309 309 309 309 308 308 307 307 308 311 311 311 311 311 312 312 312 312 312 312 312 313 314 313 313 314 315 316 315 315 315 315 316 316 315 316 313 309 309 309 310 310 310 310 312 311 307 307 308 307 307 306
296 298 300 302 301 301 300 300 299 300 301 305 308 310 310 307 304 306 310 311 308 306 306 306 306 307 307 306 305 307 308 307 307 309 309 309 309 308 308 307 308 308 308 310 311 311 311 311 311 311 312 312 313 312 311 312 313 313 312 313 314 315 314 315 315 315 315 315 315 313 311 310 308 309 310 310 310 309 312 315 312 307 307 307 306 306 306
296 298 301 302 301 301 300 300 300 300 301 303 306 308 307 304 302 305 308 309 308 306 305 305 307 308 308 307 307 306 306 307 308 308 308 308 308 308 308 309 309 309 309 311 311 311 310 311 311 311 311 312 312 312 311 312 312 312 311 312 313 313 313 314 315 314 313 313 312 311 309 308 308 309 310 309 309 311 313 313 309 306 307 307 306 306 305
296 299 301 302 302 301 301 301 300 300 300 302 305 307 305 302 301 305 308 309 307 304 304 305 306 307 307 307 307 306 307 309 309 308 308 308 309 309 308 309 310 310 310 311 311 310 310 311 312 311 311 310 311 311 311 311 312 312 312 312 312 313 313 314 314 313 313 313 312 311 310 308 308 309 309 308 310 312 311 308 306 306 306 305 304 304 303
297 299 301 302 302 301 300 300 300 299 301 303 305 306 304 302 303 306 308 308 306 304 305 305 305 306 307 307 307 306 307 309 308 309 310 309 309 310 310 310 310 310 311 311 310 310 310 311 312 312 311 311 311 311 311 310 311 311 311 311 310 311 313 313 311 311 313 312 311 311 310 308 308 308 308 308 308 308 306 305 305 305 304 304 303 302 302
297 299 301 301 301 301 300 300 300 301 303 304 304 305 304 303 305 307 307 307 305 305 305 305 304 305 305 305 305 305 306 307 307 309 311 310 309 311 310 310 311 311 311 311 311 310 310 311 312 312 312 311 311 310 310 310 310 310 310 310 309 309 311 311 309 309 311 310 309 309 309 308 307 308 307 307 306 306 305 305 304 303 303 303 302 302 301
296 299 301 301 301 300 300 300 301 303 304 304 305 306 305 305 306 307 306 306 306 305 305 304 304 304 304 304 304 304 304 305 306 307 309 310 311 311 311 311 312 311 311 312 311 310 310 310 310 311 310 310 311 310 309 310 310 309 309 310 309 308 309 310 309 308 308 308 308 307 307 307 307 307 307 306 305 305 305 304 303 303 303 302 302 302 301
297 299 300 300 299 298 299 300 302 304 305 305 305 306 305 304 305 305 305 305 305 305 305 305 305 304 304 303 303 303 303 304 305 305 308 311 312 310 310 311 311 310 311 312 312 311 310 309 309 309 309 309 309 309 308 309 309 309 309 309 309 309 308 308 308 308 308 308 308 307 307 307 306 306 306 305 305 304 304 303 303 303 302 302 302 301 301
297 298 298 297 296 297 299 301 302 303 304 305 305 305 305 305 305 305 305 305 306 306 305 306 305 304 304 303 303 304 304 304 305 306 308 310 311 310 311 311 311 311 311 311 311 311 309 308 308 309 308 308 308 308 308 308 308 309 309 308 308 308 308 308 308 308 308 308 308 307 307 306 306 306 305 305 304 304 303 303 302 302 302 302 301 301 301
296 296 296 296 295 296 299 300 301 300 301 303 305 305 306 307 307 308 306 305 306 306 305 305 304 304 303 303 304 304 304 304 305 307 308 309 310 310 311 311 311 312 311 310 310 309 308 308 308 308 308 308 308 307 307 307 307 307 307 307 307 307 308 308 307 306 307 307 306 306 306 306 306 305 305 305 304 303 303 303 302 302 302 302 301 302 301
295 295 295 295 295 296 297 300 300 300 301 304 306 306 306 307 307 308 308 306 305 305 304 304 304 303 304 304 304 304 304 304 305 307 308 309 310 310 310 310 310 311 310 309 309 309 308 308 308 308 308 308 308 307 307 308 308 308 307 307 307 307 307 306 306 306 305 305 305 305 305 305 305 305 305 305 304 304 303 303 302 302 302 302 302 302 302
295 295 295 296 296 296 296 299 300 300 301 305 306 306 306 306 306 308 309 308 307 305 304 304 304 303 304 304 304 304 304 305 305 307 307 308 310 310 310 309 309 309 308 308 308 307 307 307 307 307 307 307 307 308 308 308 308 308 307 307 307 307 307 306 306 306 306 306 305 305 305 304 304 304 304 304 304 304 304 303 303 303 302 302 302 301 301
295 295 295 296 296 296 296 298 300 301 301 302 305 305 305 305 306 307 307 307 308 307 304 304 305 304 304 304 304 304 305 305 305 306 307 308 309 309 309 308 308 307 307 307 307 307 307 307 307 307 307 307 307 307 307 307 306 306 306 306 307 307 307 307 307 307 307 306 306 306 305 305 305 304 304 304 303 303 303 303 303 303 302 302 302 302 302
295 296 296 296 296 297 297 297 299 301 300 301 304 306 305 305 306 306 305 306 308 308 305 304 305 305 304 304 304 305 305 305 305 306 307 307 307 308 308 307 307 306 306 306 307 307 307 307 307 307 308 308 307 306 305 306 305 305 306 306 306 306 307 306 306 306 306 305 305 305 305 305 305 304 304 304 304 303 303 303 302 302 302 302 302 302 302
295 296 296 296 296 297 297 297 299 300 300 302 306 306 304 304 305 305 305 306 308 308 306 305 305 305 304 305 305 305 305 306 306 307 307 307 307 307 306 306 305 305 305 305 306 306 307 307 307 307 307 307 306 305 305 305 304 304 305 305 305 305 306 306 306 305 305 305 305 305 304 304 304 304 304 303 303 303 303 303 303 303 302 302 302 302 302
296 296 296 296 296 297 297 298 299 299 301 304 307 307 305 305 305 304 304 305 307 308 306 305 305 305 304 304 305 305 305 306 306 307 307 307 307 306 306 306 305 304 304 305 305 306 306 306 307 306 306 306 306 305 305 304 304 304 304 305 305 305 305 305 305 304 304 304 304 304 303 303 303 303 303 302 302 302 302 302 302 302 302 302 302 302 302
296 296 296 297 297 297 298 299 299 300 302 305 307 307 307 306 304 303 304 305 306 307 305 304 304 304 303 304 305 305 305 306 306 306 306 306 306 306 305 305 305 305 305 305 305 306 306 306 306 306 306 306 306 305 305 304 304 304 304 304 304 304 304 304 304 304 303 303 304 304 303 303 303 303 302 302 302 302 301 301 301 301 301 301 301 301 302
296 296 297 297 297 297 298 299 300 301 303 304 305 304 305 303 302 303 304 305 307 307 305 304 304 303 303 305 305 305 306 306 306 306 306 306 306 305 305 305 305 304 305 305 305 305 305 305 306 306 305 305 305 305 304 304 304 304 304 304 303 304 304 304 304 303 303 303 304 303 303 303 302 302 302 302 301 301 301 301 301 301 301 301 301 301 301
296 296 296 297 297 297 297 299 300 301 304 306 306 304 302 301 302 303 304 306 307 306 304 304 304 303 303 305 305 305 306 306 305 306 306 306 305 305 305 305 305 305 304 304 305 305 305 305 305 304 304 304 305 304 304 304 304 304 303 303 303 303 303 303 302 302 303 303 303 303 302 302 302 302 302 302 301 301 301 301 301 301 301 301 301 300 300
296 296 297 297 297 296 297 299 302 304 305 307 306 303 300 300 302 303 305 307 307 305 304 305 304 304 304 305 305 305 306 306 305 306 306 306 306 305 304 305 305 305 305 305 305 305 305 305 304 304 304 304 304 303 304 304 304 304 304 303 303 303 303 303 302 302 302 302 302 302 302 302 302 302 302 301 301 301 301 301 301 300 300 301 301 301 300
296 297 297 297 296 297 299 302 305 306 307 306 304 302 300 300 302 303 304 306 307 306 305 305 304 305 305 305 305 305 305 305 305 305 305 306 305 304 304 305 305 305 305 305 305 305 305 305 304 304 304 304 304 304 304 304 304 304 303 303 303 303 303 303 302 302 302 302 302 302 302 302 301 301 301 301 301 301 301 301 301 301 301 301 301 301 300
297 297 297 299 301 303 304 305 306 307 307 305 303 301 300 301 302 303 305 306 307 306 306 305 305 306 306 305 304 304 304 305 304 304 305 305 304 304 305 305 304 304 304 304 304 304 305 305 305 304 304 304 304 304 304 304 303 303 303 302 302 302 302 302 302 302 302 302 302 301 301 301 301 301 301 301 301 301 301 301 301 301 301 301 301 301 301
296 297 301 304 306 306 305 305 305 305 304 302 302 302 302 303 304 305 305 306 306 305 306 306 306 306 305 304 304 305 305 305 304 304 304 304 304 304 304 304 304 304 304 304 304 305 305 305 304 304 304 304 304 304 304 303 303 303 302 302 302 302 301 302 302 302 302 303 302 301 301 301 301 301 301 301 301 301 301 301 301 301 301 301 301 301 301
297 301 305 307 306 305 305 304 303 302 302 303 304 304 304 304 304 304 303 304 305 305 306 306 306 306 306 305 305 306 307 306 305 304 304 304 304 303 303 303 304 304 304 303 304 305 304 304 304 304 304 304 304 303 303 303 302 302 302 301 302 302 301 301 302 302 302 302 302 301 301 301 301 301 301 301 301 300 301 301 301 301 301 300 300 300 300
301 305 307 306 305 305 304 301 301 303 304 305 305 304 304 304 304 303 303 304 304 305 306 306 306 307 306 305 305 306 307 306 306 304 304 304 304 303 303 303 303 303 303 302 303 304 304 303 303 303 303 304 304 303 303 302 302 302 301 301 301 301 301 301 301 301 300 300 300 301 301 301 300 300 301 300 300 300 300 300 300 301 301 300 300 300 300
305 306 306 305 304 303 301 301 303 305 305 304 303 303 303 304 304 303 303 304 304 305 305 306 306 306 306 305 305 306 306 306 305 305 304 304 304 304 303 303 303 303 303 302 303 304 304 303 304 304 304 304 303 303 302 302 302 301 301 301 301 301 301 301 301 301 301 300 300 300 300 300 300 300 300 300 300 300 300 300 300 301 301 300 300 300 300
306 306 304 303 302 301 301 303 304 304 302 302 302 302 302 303 303 303 304 304 305 305 306 306 306 307 306 305 305 305 305 305 305 304 304 303 303 303 303 303 303 303 303 303 303 304 304 303 304 304 304 304 303 303 302 302 302 301 301 301 301 301 301 301 301 300 300 301 301 300 300 300 300 300 300 300 300 300 300 300 300 300 300 300 300 300 300
304 304 303 302 302 302 302 303 303 302 301 301 301 301 302 303 303 303 304 304 305 305 306 306 306 306 306 305 305 305 305 305 305 304 304 303 303 303 303 302 302 303 303 303 303 303 303 302 304 305 304 304 303 303 303 302 302 302 301 301 301 301 301 301 300 300 300 300 300 300 300 300 300 300 300 299 300 300 300 300 300 300 300 300 300 300 300
303 303 303 303 302 302 302 302 301 301 301 300 301 301 302 302 302 303 304 304 305 305 306 306 306 305 305 306 305 304 304 304 304 304 303 303 303 302 301 301 303 304 303 302 303 303 302 302 304 305 304 303 303 303 303 302 302 302 301 301 301 301 301 301 301 300 300 300 300 299 300 300 300 300 300 300 300 300 300 300 299 299 299 300 300 300 300
303 303 303 302 301 301 301 300 300 301 301 301 301 302 302 302 303 304 304 304 305 306 306 306 306 306 306 305 304 303 303 304 303 303 303 303 302 302 302 302 303 303 302 302 303 303 302 303 305 305 304 303 303 303 302 302 302 302 301 301 301 301 301 301 301 300 300 300 300 300 300 300 300 300 300 300 300 300 300 300 300 299 299 299 300 300 300
303 302 301 300 300 301 301 300 300 300 301 302 302 303 303 304 305 305 305 305 306 306 305 305 306 306 305 304 304 304 304 304 303 303 303 303 302 302 303 303 302 302 302 303 303 303 303 304 305 305 304 303 303 303 302 302 302 301 301 301 301 301 301 301 300 300 300 300 300 300 300 300 300 300 300 300 300 300 300 300 300 300 300 300 300 299 300
302 301 301 300 299 300 301 301 300 302 303 303 304 305 306 306 306 306 305 306 306 305 305 306 306 305 305 304 304 304 304 304 303 303 303 303 302 302 302 302 302 302 302 303 303 303 303 304 305 304 304 303 303 302 302 302 302 301 301 301 301 301 301 300 300 300 300 300 300 300 300 300 300 300 300 300 300 300 300 300 300 300 300 300 300 300 300
302 300 301 300 299 300 301 302 302 303 304 304 305 306 306 306 306 306 306 306 306 306 306 306 305 305 304 304 304 304 304 303 302 302 303 303 302 301 301 301 301 302 302 303 303 304 304 304 305 304 304 303 303 302 302 302 301 301 301 301 301 301 301 300 300 300 300 300 300 300 300 299 300 299 299 299 299 300 300 300 300 300 300 300 300 300 300
302 300 301 301 300 301 302 303 303 304 305 305 305 306 306 306 306 306 305 306 306 306 306 305 305 304 304 304 304 304 303 302 302 302 302 302 301 300 300 301 301 302 302 303 303 304 305 304 304 304 303 303 302 302 302 302 301 301 301 301 301 301 301 300 300 300 300 300 300 300 300 300 299 299 299 299 299 300 300 300 300 300 300 300 300 300 300
301 301 301 301 301 301 302 303 304 304 304 304 305 305 305 306 306 306 305 305 305 305 305 304 304 304 304 304 303 303 303 303 302 302 301 301 301 301 301 301 302 302 303 303 304 305 304 304 304 304 303 303 302 302 302 301 301 301 301 301 301 301 301 300 300 300 300 300 300 300 299 299 299 299 300 300 300 300 300 300 299 300 300 300 300 300 300
301 301 301 301 302 302 303 303 304 304 304 304 304 305 305 306 306 305 305 305 305 305 304 304 304 304 303 303 302 302 303 303 303 302 302 302 302 302 302 302 302 303 304 304 304 304 304 303 303 303 303 302 302 302 302 301 301 301 301 301 300 300 300 300 300 300 300 300 300 299 299 299 299 299 300 300 299 299 299 299 299 299 300 300 300 300 300
300 301 301 302 303 303 303 304 304 305 304 304 305 305 306 306 305 305 305 305 305 304 304 304 304 303 303 302 303 303 303 302 302 302 302 303 303 302 303 303 303 304 304 304 304 304 303 303 303 303 302 302 302 302 302 301 301 301 301 300 300 300 300 300 300 300 299 299 299 299 299 299 299 299 299 299 299 299 299 299 299 299 300 300 300 300 300
Wind_Speed
12 12 9 7 5 5 6 6 7 7 5 4 3 2 8 9 4 6 13 14 13 10 6 5 6 6 5 4 3 3 1 6 4 2 5 6 4 3 3 4 4 5 5 5 6 5 3 4 6 4 4 6 3 4 7 8 3 3 6 6 9 7 1 4 5 5 8 10 7 3 8 10 9 8 7 8 7 8 8 6 3 3 2 1 1 1 3
12 11 8 6 5 5 6 7 7 8 6 4 5 4 6 6 4 5 11 13 11 6 4 4 5 6 5 5 5 2 2 6 3 1 3 3 2 3 4 4 3 5 5 4 6 5 2 5 6 2 5 3 6 8 7 5 3 3 2 4 5 4 2 4 5 4 5 8 7 6 6 7 4 2 5 9 11 11 8 4 1 3 5 4 2 1 3
11 9 6 6 5 5 6 7 8 8 6 4 6 6 5 2 4 6 10 14 12 7 6 5 4 6 5 4 5 5 3 3 2 4 2 1 2 3 3 5 5 4 4 3 6 7 3 4 4 1 5 4 7 8 6 5 4 4 2 3 3 2 2 2 4 4 4 5 4 3 3 4 4 5 10 12 15 17 10 2 3 2 3 3 2 2 5
10 8 6 5 4 5 6 8 9 7 6 5 8 7 4 1 3 5 10 15 14 11 12 12 7 4 5 3 4 5 3 3 3 5 4 1 2 2 1 6 6 2 5 6 5 7 6 5 5 3 3 4 3 5 4 4 5 5 4 3 3 1 1 2 2 3 3 3 5 6 4 5 5 7 11 11 13 16 10 2 2 3 4 3 3 6 8
9 6 6 4 4 6 7 8 9 6 5 6 8 6 4 1 2 5 7 9 11 10 13 13 5 2 5 3 2 4 4 3 5 3 2 0 3 3 2 5 6 2 4 6 3 7 8 5 5 5 2 5 3 6 7 2 3 2 2 3 3 1 1 1 3 4 4 3 7 11 8 4 4 8 10 12 14 14 11 6 3 2 1 3 3 7 7
8 6 5 4 4 6 7 8 8 5 4 8 7 3 5 4 5 6 6 4 5 6 7 7 2 2 5 2 1 2 4 3 4 3 4 4 2 3 3 4 6 2 3 3 2 6 7 4 5 5 2 4 4 3 7 4 3 2 0 4 2 2 2 1 2 3 4 3 5 9 10 3 7 11 11 12 14 11 9 8 6 3 4 2 4 8 7
7 5 4 4 5 6 7 8 5 2 5 11 8 3 6 6 7 6 6 3 1 3 3 3 4 2 2 2 2 3 3 3 3 2 4 3 1 2 3 4 7 5 3 3 2 4 5 4 4 3 3 2 1 3 3 5 3 2 2 3 1 2 2 2 1 3 5 5 4 3 6 2 10 14 13 14 13 10 9 9 9 7 8 8 9 11 9
5 5 4 3 5 6 6 7 4 2 6 10 6 6 6 4 6 5 5 3 3 4 4 3 4 3 1 2 3 3 2 3 4 4 3 0 2 4 4 3 5 4 5 4 2 1 3 3 2 2 1 2 1 3 3 3 3 4 2 1 1 2 2 3 2 4 4 3 1 1 1 5 13 15 15 15 13 11 10 11 10 8 6 5 8 10 7
4 5 4 3 5 5 6 6 3 3 7 7 5 7 6 8 10 8 5 1 4 4 4 4 3 3 2 2 3 2 3 4 2 1 3 4 3 4 4 3 3 2 5 5 4 1 2 3 2 3 3 2 2 1 3 5 2 1 0 1 1 2 2 2 3 5 2 1 3 3 5 10 15 16 15 14 12 10 9 9 9 9 8 2 4 5 4
4 5 3 3 4 5 5 4 2 3 8 5 3 6 5 10 11 7 4 1 2 3 3 4 4 3 2 2 5 2 2 4 3 1 3 4 5 3 2 4 3 3 1 3 3 1 4 6 5 7 7 5 6 5 3 4 3 1 1 1 1 2 3 2 3 4 1 2 6 7 4 6 8 10 10 10 9 9 9 10 11 12 10 4 2 4 6
4 4 3 3 4 4 5 3 1 5 9 6 2 3 2 7 10 7 5 2 2 3 2 3 2 4 3 3 4 1 3 1 2 1 2 5 1 2 0 1 3 3 1 0 3 4 7 9 8 10 11 9 8 6 5 6 4 2 2 2 1 1 3 3 2 2 1 4 7 5 2 2 2 3 6 7 8 10 11 10 11 11 9 7 7 8 9
4 5 3 2 3 4 5 3 1 5 8 7 5 3 1 7 9 8 7 2 1 2 1 4 5 3 3 3 2 1 1 1 3 4 3 4 2 2 1 1 1 2 2 1 6 8 9 10 10 10 11 11 10 8 8 6 3 2 3 3 1 1 1 1 1 2 1 3 4 3 2 1 2 3 8 8 6 9 13 12 12 12 11 9 9 9 9
5 5 3 2 3 4 4 3 0 4 6 7 7 5 1 5 7 8 8 5 1 1 1 3 5 4 4 4 2 1 1 1 3 4 2 4 2 2 3 2 2 0 2 4 7 8 7 7 7 8 9 9 6 3 5 5 4 3 3 2 1 1 1 1 0 1 0 2 2 2 3 3 2 4 9 9 6 5 8 10 12 12 10 9 8 7 8
5 5 3 1 3 5 5 2 1 3 5 6 6 5 3 1 6 7 7 7 2 3 2 1 4 6 4 2 2 2 2 2 1 1 3 4 4 5 5 5 3 1 3 6 7 6 5 3 3 5 5 4 1 3 7 7 5 4 4 3 1 1 2 1 0 2 0 2 4 4 6 4 4 4 7 8 6 5 3 4 7 10 10 8 6 6 7
6 6 3 0 3 5 5 4 4 4 4 5 5 4 3 1 7 6 7 9 4 3 3 3 4 5 4 1 1 3 3 4 3 4 5 3 5 6 6 6 3 2 4 6 5 2 1 2 2 3 2 3 3 2 4 4 3 3 3 4 3 1 1 2 1 1 1 3 5 4 4 3 5 6 7 7 5 4 3 1 3 8 11 9 5 5 6
7 6 3 1 3 5 6 5 6 6 6 6 8 7 4 5 8 5 8 12 5 3 5 6 5 2 1 2 1 4 2 2 3 4 4 3 5 5 5 4 2 2 5 6 2 1 2 2 3 3 2 3 2 3 1 2 2 3 2 2 1 2 4 2 0 2 2 2 3 2 2 3 5 8 8 7 5 3 1 2 3 8 11 9 6 5 5
7 6 4 2 3 5 6 7 7 8 7 7 8 9 4 5 5 3 8 10 3 6 7 7 3 3 2 2 1 2 2 1 2 1 1 3 5 5 6 4 3 4 5 3 1 2 1 3 4 2 0 2 1 3 1 2 2 3 2 2 1 2 3 0 1 2 2 2 3 3 3 3 7 10 7 7 6 2 1 2 2 8 10 9 8 7 7
7 7 4 2 3 5 6 6 6 7 7 7 7 7 4 1 4 3 7 8 3 6 6 6 4 3 3 4 2 2 2 3 2 1 1 2 2 3 5 4 4 4 3 0 2 2 0 2 2 1 1 2 2 2 1 2 3 1 2 2 3 3 3 1 1 4 5 5 5 3 3 3 10 11 7 7 4 1 1 1 2 7 10 10 10 10 10
7 7 5 3 3 4 6 6 6 6 7 8 7 6 3 2 6 3 5 6 4 6 5 4 3 4 6 5 3 1 1 1 2 1 0 2 2 1 1 4 3 2 2 2 2 2 1 0 1 0 1 2 1 2 3 3 2 2 3 3 3 3 2 2 3 3 3 3 4 4 4 6 14 13 9 10 5 1 3 4 5 9 11 11 11 11 11
7 7 5 3 2 4 5 7 7 7 7 8 8 7 2 3 6 4 5 4 6 8 6 6 5 6 7 7 8 7 3 3 5 5 4 2 3 2 1 2 1 2 2 1 2 1 1 2 2 0 1 2 0 2 6 7 7 6 6 6 5 3 1 3 4 3 2 3 4 3 3 8 17 12 6 10 6 2 4 6 9 11 11 12 13 12 12
7 6 5 4 3 4 5 7 8 9 9 9 9 7 4 4 6 7 6 2 6 7 7 8 9 10 9 8 10 11 9 7 7 7 7 4 4 4 0 3 1 3 2 1 1 0 0 3 3 1 2 3 2 2 5 7 8 10 8 6 5 5 3 3 2 3 2 3 4 3 2 7 14 11 6 8 8 6 6 7 10 11 11 12 14 14 14
7 6 5 4 3 4 5 7 10 11 10 9 9 7 5 5 5 7 6 5 8 9 9 9 10 11 10 9 9 9 9 8 6 5 7 8 6 4 3 2 5 5 2 1 2 1 2 4 3 3 4 4 4 6 7 6 6 7 8 6 4 4 4 6 6 5 5 5 5 6 8 10 14 14 12 12 11 10 10 11 12 12 12 13 14 15 15
7 6 5 4 4 5 7 9 11 11 8 8 8 8 7 7 7 7 7 10 11 10 9 8 8 10 10 10 9 8 8 8 7 7 8 8 6 8 11 9 8 7 4 5 4 2 4 5 4 4 6 6 6 8 8 7 5 4 5 4 5 8 10 9 8 9 10 11 12 13 14 16 16 15 15 14 13 12 13 14 14 14 14 14 15 16 16
7 6 6 5 5 6 8 11 11 8 7 8 10 11 9 8 7 7 7 9 9 8 7 7 7 8 8 8 9 8 8 9 9 9 11 11 7 7 10 10 8 5 5 6 7 6 7 6 4 4 5 4 4 6 7 7 6 6 7 6 5 10 12 9 7 8 8 8 10 13 15 16 17 17 17 16 15 14 14 15 16 15 15 16 16 17 16
7 7 6 5 6 6 8 11 10 7 7 10 11 11 9 6 5 5 6 6 7 6 6 6 7 7 6 7 9 9 8 8 9 9 11 11 10 9 10 11 9 5 3 3 6 9 10 6 4 5 6 6 6 6 7 8 7 7 7 6 6 9 11 10 9 9 8 9 13 16 18 17 17 16 16 16 16 16 15 16 16 15 15 14 14 13 14
6 6 6 6 6 6 7 10 10 8 10 11 10 8 6 7 6 5 5 4 5 7 6 5 6 7 7 8 9 9 8 8 8 9 10 10 11 10 10 9 7 7 8 8 9 12 11 6 5 6 5 7 7 7 7 10 10 9 8 8 10 11 10 9 10 11 10 11 14 16 16 16 16 16 16 16 15 15 16 16 15 15 15 14 13 13 12
6 6 6 6 6 6 7 9 10 10 10 10 9 9 6 6 4 4 7 6 3 4 6 6 8 9 10 11 10 8 8 8 8 8 9 9 9 9 7 6 8 11 13 14 15 16 13 9 7 7 7 10 11 10 10 12 11 8 8 9 11 10 8 8 8 8 7 8 9 11 10 10 13 16 16 15 15 15 16 15 14 15 15 14 15 14 13
6 6 6 6 6 7 7 8 10 10 9 8 8 8 5 3 1 2 4 5 5 3 8 9 9 8 9 11 10 8 8 8 8 8 9 9 10 9 9 9 11 13 14 13 12 12 9 7 8 8 9 10 10 10 11 11 10 8 8 10 12 11 9 9 8 7 8 10 12 13 13 12 12 14 14 14 14 14 15 14 14 14 13 13 13 12 11
6 6 6 6 7 7 7 8 10 10 9 8 8 5 3 3 2 1 2 4 6 6 10 11 8 6 7 9 9 10 10 9 9 9 9 9 10 11 12 13 13 14 15 15 13 11 10 11 11 10 6 4 4 6 8 8 7 8 10 13 16 17 18 17 15 13 13 15 15 15 15 14 13 13 12 12 12 12 13 13 12 12 11 11 10 10 10
7 7 6 6 6 7 7 9 10 11 11 9 7 5 5 5 2 2 5 7 6 5 7 8 6 6 7 8 9 10 11 10 11 11 10 11 11 11 12 13 14 14 15 15 13 12 11 12 12 11 9 7 6 6 5 6 7 9 12 15 17 17 18 18 17 16 16 16 16 15 15 15 14 13 12 11 10 10 11 11 10 9 9 9 9 8 8
7 6 6 5 6 7 8 9 9 12 12 6 2 3 4 5 5 5 8 9 6 4 6 9 8 7 7 7 7 9 11 10 11 11 11 11 12 12 12 13 14 14 15 15 15 13 11 10 10 11 12 12 9 6 6 7 7 9 12 16 17 17 17 17 17 17 17 17 16 14 13 12 12 11 11 10 9 9 10 9 9 7 7 7 8 7 7
6 6 5 5 5 7 9 9 10 12 10 3 3 2 4 7 10 10 9 7 4 4 8 9 7 5 5 5 5 7 9 9 9 10 10 10 11 12 13 14 15 14 14 14 13 12 11 12 12 12 13 13 10 7 6 7 7 9 13 15 15 16 16 15 15 15 15 14 14 12 11 9 9 10 10 10 9 9 9 9 8 7 6 7 7 7 7
6 6 5 4 6 8 9 9 10 10 6 4 5 5 7 10 14 13 7 4 2 3 7 7 4 3 4 5 6 6 4 5 7 8 8 9 10 11 12 13 13 13 12 11 11 11 11 13 13 12 13 13 10 7 6 7 11 13 14 14 14 15 15 14 13 13 11 10 11 11 11 10 9 9 9 8 8 7 7 8 8 6 6 6 6 5 5
6 6 4 4 6 8 9 9 10 8 5 5 4 6 8 13 15 11 6 5 3 2 5 4 4 5 4 5 5 3 1 1 6 7 6 6 7 9 10 9 9 10 10 9 10 10 11 12 12 10 10 11 10 6 6 9 14 15 14 13 13 13 13 12 12 12 12 11 11 11 11 10 9 9 7 6 6 6 6 6 6 5 4 4 4 4 3
6 6 5 5 7 10 11 11 10 7 4 2 3 6 10 13 13 9 5 4 3 1 5 5 5 5 4 4 5 2 2 1 8 8 5 5 5 6 8 7 6 6 6 7 9 9 8 9 11 9 7 8 7 5 6 10 14 14 12 11 12 12 12 12 11 12 12 11 10 10 9 9 8 8 6 5 4 4 4 4 4 4 3 2 2 2 2
7 7 7 9 11 12 11 8 5 4 3 4 6 8 10 12 12 8 4 2 4 2 3 6 6 5 4 4 5 3 0 5 9 8 5 5 5 5 7 6 5 5 5 5 7 6 4 4 6 6 5 6 6 7 9 12 13 11 10 10 10 9 9 10 11 11 11 9 8 8 8 8 7 7 6 5 3 3 3 2 2 2 2 1 1 2 1
9 10 12 13 11 8 6 4 1 2 4 7 9 10 10 10 9 5 1 2 4 4 3 4 3 4 5 6 7 5 3 5 8 6 5 6 6 5 6 6 4 4 5 6 6 5 4 4 5 6 6 6 8 11 13 12 12 11 10 10 9 8 8 8 10 10 9 7 6 6 6 6 6 6 5 5 4 3 3 2 2 2 3 3 1 0 1
12 14 14 10 5 3 4 3 1 1 7 11 11 9 8 8 6 3 1 3 3 3 6 5 2 6 7 7 7 4 3 4 7 5 4 6 6 5 5 5 2 2 4 5 5 5 6 6 5 5 7 9 12 14 13 12 11 11 10 10 9 8 7 7 6 6 6 6 6 5 5 5 6 5 5 5 4 4 3 3 3 3 4 4 3 3 2
15 13 7 3 3 3 3 3 5 8 13 13 9 6 5 6 5 3 2 3 4 3 5 3 4 6 6 7 6 3 1 2 5 5 4 3 2 2 3 3 2 2 3 4 2 2 4 5 4 4 6 8 10 12 11 11 11 10 9 9 9 7 7 6 6 6 6 6 5 4 4 5 5 4 4 4 3 3 4 3 3 4 4 3 3 4 3
11 5 3 2 5 5 4 7 12 13 11 7 5 3 4 5 4 4 3 4 4 2 2 1 5 5 5 8 9 5 2 3 1 5 7 4 0 2 4 4 3 3 4 4 3 4 3 5 5 5 5 7 10 11 11 10 10 10 9 9 8 8 8 7 6 5 5 5 4 4 4 4 3 3 3 3 3 3 4 4 4 5 4 3 2 2 4
2 2 0 6 8 6 9 13 12 8 5 4 3 2 2 2 1 4 4 4 3 2 0 2 5 4 4 8 10 7 3 5 4 6 9 5 0 2 3 4 3 3 3 4 4 4 3 4 5 4 6 10 12 12 11 11 10 10 9 8 7 8 8 6 5 5 5 6 5 5 4 4 3 3 3 3 3 3 3 3 4 3 3 3 3 3 4
2 3 8 10 9 9 12 10 6 2 2 1 1 2 3 1 1 3 4 3 3 4 3 3 5 6 7 8 8 7 4 2 3 6 7 3 1 1 3 3 2 2 3 5 5 4 3 4 4 5 10 14 14 12 11 11 10 9 9 8 6 6 7 7 6 5 5 4 5 5 4 4 3 3 3 3 2 2 3 3 4 3 3 3 3 3 4
7 9 10 9 8 9 8 5 4 2 1 0 1 2 2 1 3 4 3 2 5 7 5 4 7 8 8 7 7 7 4 1 1 3 5 4 1 1 3 3 2 2 4 4 4 3 3 3 3 7 13 16 14 12 12 12 10 9 8 7 6 5 6 6 5 5 4 4 4 4 3 2 2 2 3 2 1 2 2 2 3 3 3 3 3 4 4
11 9 7 6 7 6 4 2 2 1 0 1 3 3 3 4 5 5 3 3 6 8 7 6 8 8 6 5 7 7 5 2 1 2 4 5 3 1 2 3 2 4 4 3 3 3 3 3 5 13 17 16 13 12 13 12 11 9 8 7 6 5 5 4 4 4 4 5 5 3 2 2 2 2 1 1 1 2 2 2 2 2 3 3 4 4 4
9 7 5 4 2 3 2 1 1 2 2 3 3 3 4 5 4 4 6 7 7 8 8 8 9 9 7 5 6 6 6 5 3 2 3 4 3 2 2 3 3 3 3 3 3 4 3 3 9 17 19 15 13 13 13 11 11 10 8 7 6 5 5 4 4 3 3 3 3 2 1 2 1 1 1 1 2 2 3 3 3 4 4 4 5 5 5
5 6 6 4 0 3 2 2 2 3 3 4 6 6 6 8 6 5 8 9 9 10 10 10 9 10 8 4 3 4 6 5 5 4 4 4 3 2 1 2 3 3 4 3 4 5 4 5 11 16 16 15 14 13 12 11 10 10 9 8 6 5 5 4 3 3 2 2 2 1 0 0 1 1 2 2 3 3 3 4 5 5 6 6 6 6 6
4 6 6 3 1 3 3 3 5 5 5 7 9 5 3 6 7 7 7 8 10 11 11 9 9 10 7 4 3 5 6 5 4 3 3 3 3 2 1 1 2 3 3 4 5 4 4 7 13 16 15 15 14 13 11 10 9 8 8 8 6 5 5 4 3 3 2 2 1 1 1 1 2 2 3 3 3 4 4 5 5 5 6 7 7 7 7
5 6 4 2 2 3 4 6 7 6 5 8 6 4 7 9 9 7 5 8 11 11 11 10 9 8 6 6 4 4 6 5 3 2 2 2 3 2 1 2 2 2 3 4 4 4 5 11 14 15 14 14 14 12 11 10 8 7 8 7 6 5 5 4 3 3 2 1 1 2 2 2 2 3 3 4 5 5 5 5 5 6 7 7 7 7 7
4 4 3 3 4 5 6 7 6 4 4 5 4 4 5 7 9 7 7 9 10 9 9 10 8 5 5 4 3 4 5 5 3 2 2 3 3 2 2 3 4 4 4 4 4 5 11 16 15 15 15 15 13 12 10 9 8 7 7 6 5 5 5 4 4 3 2 2 2 2 2 3 3 4 4 5 5 5 5 5 6 6 7 7 8 8 8
5 4 4 4 5 6 7 7 6 4 5 5 5 5 6 8 10 8 7 9 9 8 8 8 5 4 2 2 2 3 4 4 3 3 4 3 3 3 4 4 4 4 4 3 6 10 16 17 16 15 15 14 12 10 10 9 8 7 6 6 5 5 5 5 4 3 3 3 3 2 3 3 4 4 4 5 5 6 6 7 7 7 8 8 9 9 8
4 4 6 7 7 5 6 6 5 3 5 7 8 8 8 10 10 9 8 7 7 7 7 6 4 3 2 3 2 2 4 4 4 4 4 3 3 4 4 5 5 6 5 10 14 14 15 16 15 15 15 13 11 9 10 9 8 7 6 5 5 5 5 5 4 4 3 3 3 3 3 4 4 4 5 6 6 6 7 8 7 7 8 8 8 8 8
5 5 6 7 7 6 7 7 5 4 6 8 8 8 9 10 9 9 9 8 6 6 6 6 3 2 2 3 3 2 3 3 3 4 4 3 3 4 5 5 6 7 9 13 13 11 12 14 14 14 14 12 10 9 9 8 8 7 6 5 6 6 6 5 5 4 3 3 3 3 3 4 4 4 5 5 6 6 7 7 7 7 7 8 8 8 8
Wind_Direction
318 312 309 306 300 300 302 304 307 307 292 230 181 258 258 244 234 170 173 173 167 177 212 208 210 236 246 275 306 68 223 238 218 190 199 206 228 224 239 263 268 276 270 282 296 284 263 274 283 299 79 87 37 339 312 298 351 38 304 322 360 355 277 231 245 241 257 257 241 258 289 276 252 235 243 252 252 246 251 261 230 195 209 144 73 119 128
317 311 310 304 296 302 304 303 307 305 294 251 209 228 260 243 205 182 179 177 179 193 220 212 214 227 236 251 237 187 262 256 250 246 200 176 196 223 243 253 244 257 259 266 274 274 299 283 280 349 59 47 335 346 356 327 344 47 308 315 345 335 278 251 251 242 248 248 234 219 240 267 276 306 333 338 338 324 301 298 83 184 197 161 161 225 98
312 308 304 294 293 299 295 303 309 299 290 256 211 226 270 224 178 205 195 185 191 210 234 258 248 206 202 237 223 196 217 248 293 306 276 171 232 238 263 267 238 240 278 281 266 270 276 275 283 73 100 60 341 341 15 25 38 69 42 333 334 331 348 306 264 249 237 236 249 244 245 282 306 356 5 5 2 352 338 339 35 332 238 194 185 140 116
309 300 292 284 284 292 297 309 310 295 281 245 202 207 268 311 166 201 192 189 201 219 236 250 259 194 173 208 224 206 203 175 189 265 278 176 265 276 358 290 274 252 283 270 251 269 259 231 255 263 131 96 351 326 8 47 64 73 75 50 40 52 336 340 331 303 286 283 301 300 297 302 317 359 10 15 15 4 351 351 55 9 315 318 53 110 124
307 292 285 274 275 295 311 315 307 297 269 219 191 202 248 283 183 193 177 186 206 220 230 234 238 154 167 179 225 204 208 185 162 207 272 35 294 284 174 267 272 190 260 279 290 295 287 254 256 268 135 101 54 355 343 1 110 96 104 109 82 12 284 9 16 334 314 310 302 294 283 287 6 28 21 22 29 20 8 15 56 92 294 320 48 101 112
302 286 278 266 285 307 320 316 306 300 227 179 164 213 226 223 265 228 180 178 207 207 222 218 159 143 188 170 346 209 202 196 150 176 228 197 216 265 204 252 278 222 205 249 277 284 293 308 300 304 46 85 84 17 321 306 159 179 68 94 102 258 243 108 54 316 293 257 266 291 292 307 60 50 36 37 41 34 25 23 21 67 110 94 74 86 85
293 280 265 261 299 321 324 315 311 285 182 164 156 242 223 229 285 253 186 179 168 131 154 176 151 173 208 131 179 218 185 176 177 194 242 226 194 246 239 266 286 281 239 228 228 264 284 305 314 349 24 355 86 103 322 333 47 70 55 77 54 277 230 135 168 263 270 247 217 268 296 351 65 52 43 53 57 49 43 33 21 47 84 95 93 88 77
285 265 249 263 312 329 324 317 319 188 175 168 187 246 224 234 294 270 218 188 127 124 130 154 153 141 122 138 171 201 165 170 205 186 168 226 300 273 275 268 264 303 348 317 267 279 305 301 318 5 351 302 19 117 193 270 23 46 51 100 71 264 202 144 223 257 262 266 276 261 219 85 65 45 36 46 55 56 49 32 23 33 55 96 113 99 80
269 246 241 278 319 330 324 321 340 174 173 170 220 243 239 274 288 277 268 129 130 158 154 165 170 139 172 196 149 167 182 169 225 260 161 165 199 248 290 304 264 310 360 314 278 306 313 278 274 300 294 261 278 252 197 216 210 91 102 109 117 252 239 172 241 264 233 161 21 46 122 101 64 39 27 33 43 57 55 39 29 15 2 15 123 96 81
252 231 238 294 318 336 330 326 5 168 169 160 267 253 255 293 293 267 252 178 189 219 167 177 192 131 124 154 132 165 240 167 157 316 292 236 195 195 322 345 308 280 273 283 295 344 303 293 295 293 287 270 266 271 261 251 242 173 160 222 187 255 271 242 238 264 253 104 56 53 109 115 61 27 14 18 36 60 62 48 33 14 4 20 70 55 68
236 214 228 297 324 347 340 334 47 168 175 173 237 236 261 324 317 283 250 208 202 233 191 163 142 104 111 135 130 152 319 310 173 122 291 270 218 105 74 281 286 292 87 326 299 293 282 283 280 274 273 273 268 263 262 258 248 201 189 224 254 275 278 282 256 247 274 75 74 73 108 137 78 23 8 11 35 65 72 56 36 20 20 46 62 57 63
220 205 224 299 334 356 353 342 71 171 186 194 196 173 43 341 326 301 281 261 176 230 181 106 97 114 157 140 108 124 154 277 330 17 1 307 3 71 272 252 269 333 51 300 284 288 274 261 255 253 254 255 253 255 262 263 252 226 216 210 210 240 246 330 306 253 138 107 133 153 135 131 131 43 25 19 38 75 83 70 44 29 26 43 60 62 65
205 201 225 300 343 8 13 358 80 165 184 197 197 183 119 341 322 302 295 295 237 158 80 102 117 117 121 124 135 234 198 257 338 8 325 290 299 253 267 271 224 290 355 300 283 282 271 257 245 238 235 236 239 274 315 339 4 339 284 244 210 245 239 170 264 298 134 148 192 164 127 119 110 46 26 21 18 45 73 69 45 30 24 36 59 70 76
196 197 219 298 3 21 30 36 91 148 170 184 204 203 163 352 310 297 302 306 295 109 63 14 122 111 99 111 168 215 217 210 219 210 224 251 269 259 257 260 250 331 334 301 279 267 271 279 251 229 224 219 198 21 0 354 355 340 319 303 263 249 261 234 308 319 287 92 75 112 143 114 59 29 12 17 10 351 7 61 51 33 23 28 58 83 84
190 193 205 301 25 36 49 70 100 123 144 151 158 149 119 303 285 282 303 303 288 123 81 31 68 103 123 126 266 248 210 179 192 198 181 201 254 247 236 251 285 344 300 281 271 253 308 336 252 214 204 216 181 85 9 330 314 319 320 309 303 10 11 336 333 329 8 94 96 128 163 115 38 6 354 0 1 346 337 124 77 31 19 23 45 74 80
187 190 192 106 44 51 66 81 99 110 119 129 124 103 58 297 269 265 295 296 291 93 74 56 46 26 127 122 229 259 246 155 209 204 162 183 243 225 199 228 279 285 261 263 279 23 14 309 239 197 202 245 187 116 79 287 305 311 278 241 294 80 74 26 50 112 50 91 117 71 91 89 14 347 344 350 358 357 300 175 87 16 10 25 44 63 79
181 184 181 116 61 59 76 91 95 98 108 121 115 95 53 287 249 239 292 298 342 74 63 61 51 280 266 111 146 287 330 321 269 269 137 206 221 174 151 176 206 211 232 249 59 59 336 273 249 204 65 335 110 141 173 133 89 324 285 179 156 119 127 276 258 125 71 100 110 59 70 67 354 339 344 357 2 5 242 190 50 8 12 38 52 59 64
180 180 172 123 81 70 78 94 94 89 102 119 115 95 76 225 190 204 294 307 48 83 63 48 32 349 14 41 50 30 347 310 281 213 166 166 157 133 134 158 192 194 197 208 65 83 296 282 280 169 84 30 59 163 193 107 114 354 351 98 88 74 88 64 88 87 71 91 103 86 101 43 346 337 359 6 337 243 92 12 7 17 36 53 51 53 59
179 178 165 130 101 86 81 91 96 94 102 111 103 83 67 175 169 168 312 325 80 95 70 51 35 25 31 26 16 78 182 309 12 347 252 102 83 316 163 145 158 175 162 143 122 122 170 226 33 39 117 58 49 141 106 43 31 28 37 64 67 42 40 67 93 80 67 97 105 111 117 29 349 338 3 11 346 194 82 46 38 40 52 62 56 58 73
176 176 165 144 115 100 93 93 97 101 111 114 101 87 95 184 151 102 356 355 107 103 73 62 64 55 52 40 30 38 56 42 25 359 337 45 81 12 346 136 113 13 12 64 121 142 149 122 113 51 132 123 140 132 102 71 47 37 37 49 44 358 4 86 75 38 64 95 72 83 118 13 356 348 3 17 20 118 104 66 59 54 60 69 66 70 86
172 174 168 155 128 116 107 101 105 110 113 114 103 95 116 151 108 65 18 26 123 108 77 66 66 63 61 51 39 37 39 34 21 360 347 358 53 63 176 205 113 45 17 18 80 198 19 88 102 103 112 124 130 103 99 89 64 42 38 59 42 350 345 96 75 359 45 83 55 57 98 28 21 33 63 54 60 97 102 85 75 67 69 77 78 82 88
168 171 168 156 134 130 123 116 121 122 116 111 105 102 124 141 90 53 45 82 103 99 88 84 81 74 71 67 54 44 44 42 26 11 356 332 334 42 82 122 89 82 107 87 65 85 89 83 85 78 74 80 89 85 82 86 77 48 35 49 50 26 54 79 73 58 66 91 106 98 88 68 56 62 75 76 77 84 88 91 88 79 80 85 87 90 92
161 162 158 151 136 136 137 134 132 127 114 105 100 100 121 132 103 74 78 96 105 110 106 99 92 81 71 66 60 51 50 47 33 37 30 354 350 58 65 64 74 83 94 105 110 99 75 78 80 78 77 77 88 93 84 83 94 82 59 70 123 137 120 92 84 98 96 95 104 100 86 78 73 71 75 78 79 83 86 89 89 88 89 91 92 94 95
149 150 149 145 133 133 144 147 141 125 108 106 102 101 115 127 111 97 103 112 118 118 101 82 75 68 59 58 56 51 51 45 33 37 38 20 18 67 73 67 77 86 87 111 132 122 94 90 90 81 74 67 80 93 92 90 103 114 110 109 123 123 113 97 99 119 110 94 97 96 90 88 83 78 77 78 79 83 87 90 94 97 96 94 94 95 96
138 142 142 138 130 132 148 156 150 128 116 122 115 107 115 131 123 111 117 125 125 113 96 79 67 58 56 61 56 47 51 53 43 42 47 38 37 61 82 86 93 101 110 142 143 119 108 112 104 80 58 42 61 85 87 83 88 95 99 101 97 97 98 93 93 98 97 98 100 95 90 90 88 83 82 82 83 86 89 93 98 100 99 98 96 95 99
132 139 137 133 130 133 149 160 160 143 129 126 116 102 121 154 144 94 68 87 108 109 107 99 84 73 65 65 60 51 54 63 57 53 58 58 57 68 84 88 82 77 84 92 91 87 86 83 77 80 64 50 67 88 81 71 69 66 68 82 95 100 99 96 97 100 100 104 107 102 95 90 89 90 93 95 96 97 96 97 98 97 96 95 92 93 97
129 136 131 127 129 133 144 159 163 156 146 134 106 84 102 165 172 50 34 33 61 108 117 108 101 94 73 59 58 58 58 63 65 64 64 61 60 64 68 69 74 78 83 87 84 79 77 74 71 78 75 62 60 65 68 67 66 63 63 71 82 96 112 115 110 107 105 109 111 106 99 93 91 94 97 102 105 106 103 100 99 99 98 95 92 93 93
123 131 124 119 126 130 140 155 161 162 165 151 113 86 88 143 196 23 43 30 10 67 116 114 109 104 75 54 54 62 64 65 66 67 70 66 62 63 63 66 78 84 85 88 89 85 81 81 84 90 87 74 67 74 81 80 76 71 66 57 51 56 76 96 99 96 98 103 102 97 98 102 101 97 97 99 101 102 102 101 102 105 107 105 102 101 98
116 121 117 117 125 127 134 149 157 164 166 144 117 99 97 104 74 9 115 78 39 65 113 116 105 91 70 57 60 67 70 75 75 72 74 74 70 69 71 71 74 78 81 82 83 80 75 73 77 81 78 70 85 95 91 85 78 72 72 70 64 63 70 83 94 98 97 98 98 98 102 105 103 102 102 100 98 98 99 102 106 107 106 102 101 105 107
114 113 109 116 124 126 133 143 151 161 162 149 137 140 133 122 138 181 132 103 69 68 115 118 99 85 73 61 68 78 76 77 81 79 76 78 78 77 80 82 82 84 86 85 84 87 88 82 78 75 70 75 97 103 92 90 89 82 79 79 77 75 78 85 92 96 97 99 102 102 102 103 103 104 102 98 98 100 100 102 104 105 104 102 101 104 106
112 107 104 115 123 129 136 139 149 159 160 156 175 176 145 139 163 162 127 102 66 47 102 114 111 108 91 61 64 85 88 84 85 83 75 73 74 75 78 82 84 85 87 88 86 86 88 86 83 77 71 74 86 94 91 91 90 87 86 85 84 86 89 91 94 97 101 104 104 101 100 104 106 105 102 99 97 97 99 100 100 100 102 100 100 107 114
114 106 103 109 120 136 143 140 148 158 156 119 16 40 110 141 157 154 134 108 72 76 112 118 119 119 107 81 75 90 95 93 92 89 83 79 77 75 76 79 81 82 85 85 83 81 79 80 81 78 73 75 84 93 93 92 97 99 98 96 96 97 97 97 100 104 108 113 113 110 109 108 104 101 104 107 103 99 104 105 98 89 86 85 84 94 109
117 108 103 103 120 138 147 146 148 149 131 73 58 80 113 144 157 156 136 92 58 120 127 125 123 122 122 121 114 105 102 109 103 90 85 91 95 91 87 86 86 84 82 82 86 88 85 83 82 81 79 80 86 93 94 96 103 106 103 100 99 101 102 103 103 101 103 107 110 110 110 109 106 103 105 108 102 95 96 96 88 80 78 79 78 84 94
118 111 109 108 121 135 143 146 145 135 98 64 82 118 140 154 161 157 123 60 25 125 136 132 123 118 135 159 144 123 302 178 118 100 88 102 113 107 100 97 92 86 86 94 101 99 94 94 94 89 85 87 90 94 98 104 109 112 114 113 110 108 108 106 100 96 97 97 98 102 105 107 108 107 104 100 92 81 78 82 83 80 76 71 75 83 83
124 116 111 112 122 130 131 130 130 124 103 83 123 144 153 160 165 159 117 60 10 127 137 139 133 126 149 179 154 126 317 117 117 111 111 126 130 118 112 110 100 94 103 115 112 104 102 107 106 102 101 104 101 98 111 117 117 117 116 115 115 115 111 107 101 98 99 99 99 104 108 107 106 105 99 91 83 75 75 75 67 59 60 63 75 86 75
124 116 114 117 119 121 123 123 118 110 122 147 149 144 147 158 166 162 126 26 324 324 139 155 162 161 165 151 134 140 201 111 112 115 121 122 115 112 117 116 100 98 117 120 107 104 114 120 110 107 111 111 102 101 110 113 109 104 97 95 98 101 102 105 105 102 96 92 94 100 100 97 97 99 98 93 80 58 50 42 19 7 356 349 92 118 96
127 122 115 112 111 115 126 137 86 58 126 145 144 132 129 140 149 143 117 299 299 300 265 223 169 122 107 114 132 167 194 140 132 139 133 119 114 114 121 122 112 114 121 109 98 103 113 114 111 105 97 96 100 104 107 105 101 98 96 95 98 102 102 104 112 114 110 103 97 96 95 91 89 88 85 78 68 47 21 355 333 321 313 307 308 31 62
131 125 117 115 124 136 138 152 208 158 137 140 139 130 130 144 150 139 178 217 219 267 279 272 132 108 106 113 131 166 194 160 152 147 126 125 132 127 118 117 129 160 136 108 94 96 95 93 100 101 95 97 103 104 104 102 100 99 98 97 100 107 111 110 113 116 116 112 104 97 92 85 81 79 68 52 47 48 32 357 329 318 310 296 287 289 289
130 125 128 160 158 120 114 159 170 147 136 138 144 146 159 181 177 146 155 189 183 227 271 252 151 145 143 135 136 146 158 158 160 151 137 140 155 154 144 140 161 187 143 122 136 161 113 103 114 123 116 113 112 110 110 111 107 102 100 97 94 93 96 92 78 72 83 96 99 92 81 68 60 64 64 51 39 41 41 24 356 343 329 299 276 268 258
130 143 212 166 104 92 118 140 136 133 137 154 173 173 191 211 190 149 169 197 185 205 291 81 102 106 124 137 142 135 66 2 289 160 149 140 326 208 176 158 162 182 156 140 176 211 163 128 135 144 140 136 132 127 125 121 115 110 108 105 100 96 93 89 81 81 94 99 92 86 88 85 71 57 53 46 33 30 33 26 10 357 342 320 299 267 254
152 269 100 86 84 104 134 134 130 133 156 179 175 160 200 237 158 136 180 205 173 138 141 141 134 129 138 152 156 149 98 12 15 113 127 121 317 210 153 127 151 192 158 134 168 198 168 146 160 160 140 139 142 142 135 128 122 117 111 107 107 105 102 96 89 92 102 108 105 101 97 90 77 59 49 43 32 30 24 6 357 354 336 318 311 278 260
186 110 95 93 103 128 139 143 148 152 136 135 162 179 197 230 126 163 198 205 148 144 159 155 138 122 113 121 132 133 119 49 50 108 122 116 306 194 126 123 185 198 127 131 170 192 168 158 167 144 133 139 147 149 139 131 129 125 117 112 114 111 105 102 94 82 77 84 92 92 90 84 64 48 50 45 25 23 17 355 355 8 358 332 320 298 284
138 118 110 116 135 146 152 164 173 155 64 13 168 166 171 194 203 203 205 155 152 160 149 104 102 107 106 109 109 106 102 78 51 109 128 135 143 129 129 149 181 124 112 142 185 182 162 175 163 133 136 144 151 152 143 137 137 134 124 120 121 114 106 108 109 101 100 102 94 86 92 102 76 43 51 51 9 1 6 346 343 359 355 336 330 323 307
129 129 138 150 154 157 161 154 143 146 213 179 172 183 195 202 209 206 182 164 174 171 158 150 156 160 160 148 125 118 128 151 82 78 118 137 148 153 145 149 133 108 124 173 197 163 161 183 144 134 139 147 154 155 148 141 139 138 133 130 132 127 120 119 120 120 126 127 117 101 85 84 63 23 32 49 14 3 359 334 322 330 326 314 316 321 318
137 153 160 144 140 173 171 136 176 222 215 189 196 197 182 190 209 187 157 166 171 156 152 166 170 158 148 138 126 133 159 169 142 117 147 157 156 150 137 132 130 136 164 194 178 152 157 145 125 130 139 150 156 154 149 144 144 146 143 141 141 136 130 125 120 120 124 123 116 111 91 82 65 339 349 1 339 327 324 320 318 320 314 301 296 301 304
158 174 156 120 44 235 195 155 197 212 192 197 213 214 201 201 194 140 137 155 155 144 155 172 162 144 145 155 137 145 161 157 139 148 173 161 135 110 88 108 138 169 193 190 161 157 168 141 126 130 142 154 156 153 150 150 151 150 147 148 148 144 139 137 131 129 133 131 140 163 175 15 337 319 321 317 306 306 311 308 305 304 302 298 296 295 293
181 183 165 141 198 218 208 209 213 208 200 206 211 210 176 158 137 117 132 153 147 144 159 165 140 130 148 187 172 142 140 137 135 152 163 142 123 108 86 152 174 191 192 173 167 181 179 146 135 138 148 156 156 154 155 157 157 151 146 147 150 152 152 151 151 151 150 156 189 214 233 273 286 296 301 300 300 303 302 300 300 297 291 288 289 289 285
205 195 190 190 187 188 212 224 216 207 210 207 190 110 83 101 109 109 133 145 142 149 160 150 129 128 157 187 185 144 120 119 127 122 101 114 128 132 142 167 179 184 176 180 196 197 152 137 140 146 151 156 160 162 161 161 160 157 152 153 159 166 168 167 174 178 179 198 227 242 264 277 282 290 292 290 292 296 297 300 305 298 289 287 288 287 284
213 201 207 230 217 205 215 222 212 192 196 198 170 110 111 132 134 135 137 137 142 154 145 130 135 166 179 173 167 137 123 134 155 143 117 129 141 147 162 170 173 183 196 210 209 153 124 126 139 149 152 157 166 170 165 162 162 164 165 166 170 173 177 181 186 192 201 217 230 255 293 296 288 286 285 286 292 299 301 302 304 298 289 286 284 282 279
231 227 224 230 220 201 204 219 214 175 163 178 185 184 169 149 142 146 144 136 145 156 139 124 146 195 182 120 133 142 138 151 164 157 161 172 171 169 174 171 174 196 197 157 126 120 119 124 137 149 154 162 173 170 159 159 166 170 173 178 179 182 191 194 193 199 212 223 242 285 303 285 277 293 309 315 319 317 308 300 297 295 291 285 281 280 278
234 234 233 239 236 205 192 213 218 171 160 182 191 183 161 144 148 165 160 142 154 175 166 151 172 193 147 124 145 138 127 137 150 160 177 185 168 166 178 184 199 204 159 109 103 111 122 132 143 152 157 167 176 166 154 160 171 175 181 188 188 188 192 193 196 208 219 220 233 260 267 265 278 306 323 323 317 310 302 295 292 293 293 289 283 280 279
214 215 228 242 243 215 199 206 204 173 172 182 176 160 147 145 156 168 162 151 167 189 166 142 151 177 146 147 162 140 124 146 169 168 166 170 179 191 192 185 185 174 135 113 113 125 133 135 144 154 159 167 171 162 156 166 176 180 185 188 184 183 188 191 194 206 216 223 240 261 271 276 290 307 313 307 301 300 300 302 303 303 298 292 288 285 284